[[[{"header":{"parameterUnit":"kt","parameterCategory":2,"dx":1,"dy":1,"la1":30.253999710083008,"la2":30.299108505249023,"lo1":-89.0895004272461,"lo2":-89.04439544677734,"nx":28,"ny":28,"refTime":"2022-09-28T21:00:00:Z","depth":0,"parameterNumber":1,"parameterNumberName":"U-component_of_WINDS"},"data":[-3.6677,-3.6902,-3.6902,-3.716,-3.7203,-3.7381,-3.7444,-3.7527,-3.7592,-3.7805,-3.7928,-3.7952,-3.802,-3.8168,-3.8303,-3.8311,-3.8372,-3.8451,-3.8449,-3.8088,-3.8038,-3.7991,-3.7939,-3.8462,-3.8463,-3.8827,-3.883,-3.8833,-3.6413,-3.6458,-3.6592,-3.6724,-3.6841,-3.6763,-3.6862,-3.6966,-3.7128,-3.721,-3.733,-3.7518,-3.7667,-3.7709,-3.7853,-3.7962,-3.7937,-3.8002,-3.7998,-3.8012,-3.7623,-3.7568,-3.802,-3.802,-3.802,-3.802,-3.802,-3.802,-3.5934,-3.6069,-3.6147,-3.6294,-3.636,-3.6448,-3.6578,-3.6603,-3.6737,-3.6885,-3.6858,-3.7042,-3.7126,-3.73,-3.7359,-3.7504,-3.7433,-3.7506,-3.7526,-3.7547,-3.7572,-3.7058,-3.7527,-3.7526,-3.7525,-3.7524,-3.7523,0,-3.5586,-3.5576,-3.5705,-3.5835,-3.5942,-3.6043,-3.6135,-3.6215,-3.6196,-3.6307,-3.647,-3.6564,-3.6749,-3.6905,-3.7039,-3.7086,-3.7025,-3.7015,-3.7067,-3.7088,-3.7089,-3.7099,-3.6472,-3.7004,-3.6999,-3.6996,-3.6994,-3.6992,-3.5109,-3.5264,-3.5345,-3.5436,-3.5487,-3.5634,-3.5722,-3.5693,-3.5789,-3.5899,-3.6021,-3.6173,-3.6295,-3.6556,-3.6588,-3.6728,-3.6701,-3.6905,-3.6723,-3.6734,-3.6714,-3.6709,-3.6727,-3.6944,-3.695,-3.6955,-3.6959,0,-3.4843,-3.484,-3.508,-3.5145,-3.5166,-3.5331,-3.5389,-3.5522,-3.5531,-3.5718,-3.5759,-3.5778,-3.5938,-3.5936,-3.6119,-3.6114,-3.6394,-3.6359,-3.6365,-3.6361,-3.6549,-3.6535,-3.7146,-3.7227,-3.6675,-3.668,-3.6685,0,-3.444,-3.4644,-3.4629,-3.4769,-3.4995,-3.496,-3.5186,-3.5217,-3.5287,-3.5433,-3.5356,-3.5496,-3.547,-3.561,-3.5603,-3.5829,-3.5861,-3.5874,-3.5872,-3.5887,-3.5886,-3.5945,-3.5924,-3.5849,-3.5846,-3.5843,-3.5841,0,-3.4029,-3.4258,-3.4482,-3.4535,-3.4627,-3.4734,-3.4777,-3.4854,-3.4942,-3.5054,-3.5111,-3.5244,-3.532,-3.5425,-3.5416,-3.5293,-3.569,-3.5519,-3.5704,-3.5706,-3.58,-3.5796,-3.6328,-3.5837,-3.5836,-3.5835,-3.5834,0,-3.3706,-3.3817,-3.4141,-3.4216,-3.4278,-3.4426,-3.4555,-3.468,-3.4768,-3.4772,-3.486,-3.4812,-3.5004,-3.4835,-3.5102,-3.4946,-3.5025,-3.5053,-3.5066,-3.5091,-3.4905,-3.5216,-3.5716,-3.5773,-3.5104,-3.5097,-3.5092,0,-3.324,-3.3566,-3.3538,-3.3847,-3.3998,-3.3904,-3.4067,-3.4146,-3.4165,-3.4297,-3.4317,-3.447,-3.4343,-3.4391,-3.4522,-3.4553,-3.4755,-3.4523,-3.4726,-3.4733,-3.4713,-3.5171,-3.525,-3.5605,-3.5014,-3.5022,-3.5028,0,-3.288,-3.2986,-3.3044,-3.3104,-3.32,-3.3325,-3.3512,-3.3653,-3.3744,-3.3838,-3.3999,-3.4208,-3.4123,-3.4203,-3.4178,-3.4315,-3.4617,-3.4207,-3.4209,-3.4287,-3.4971,-3.5047,-3.5106,-3.457,-3.458,-3.4587,-3.4966,0,-3.2405,-3.2566,-3.2717,-3.2849,-3.2944,-3.3135,-3.3131,-3.3232,-3.3197,-3.3213,-3.3445,-3.351,-3.3658,-3.3721,-3.369,-3.4002,-3.3952,-3.3859,-3.3702,-3.3999,-3.4125,-3.4176,-3.3515,-3.3511,-3.3507,-3.3503,0,0,-3.1965,-3.2195,-3.2159,-3.2338,-3.2417,-3.2317,-3.2523,-3.2588,-3.2724,-3.2783,-3.2692,-3.3,-3.3058,-3.3342,-3.3434,-3.3491,-3.355,-3.3446,-3.3856,-3.3895,-3.3932,-3.4066,-3.4118,-3.3496,-3.3495,-3.3494,-3.3492,0,-3.1792,-3.1846,-3.2047,-3.2112,-3.2207,-3.2213,-3.2261,-3.2339,-3.236,-3.2584,-3.2503,-3.2641,-3.2888,-3.2962,-3.3032,-3.3408,-3.3344,-3.3452,-3.3658,-3.3816,-3.3861,-3.39,-3.4041,-3.4091,-3.3483,-3.3483,-3.3484,0,-3.1442,-3.1497,-3.1593,-3.1763,-3.1825,-3.1982,-3.1813,-3.1984,-3.2102,-3.1988,-3.2214,-3.2251,-3.2349,-3.2614,-3.2733,-3.2656,-3.3158,-3.2996,-3.3021,-3.3037,-3.319,-3.3244,-3.3291,-3.2666,-3.2663,-3.266,0,0,-3.1295,-3.1442,-3.1493,-3.1726,-3.177,-3.1782,-3.1864,-3.1839,-3.1926,-3.1962,-3.2008,-3.2098,-3.2241,-3.2337,-3.2471,-3.2761,-3.2783,-3.2896,-3.2934,-3.2966,-3.2999,-3.316,-3.3213,-3.265,-3.2649,-3.2649,0,0,-3.1225,-3.1293,-3.1242,-3.151,-3.1594,-3.1664,-3.1807,-3.1748,-3.1867,-3.1846,-3.1814,-3.1837,-3.2084,-3.2124,-3.1981,-3.2416,-3.2259,-3.2293,-3.2382,-3.2431,-3.2469,-3.2458,-3.1823,0,0,0,0,0,-3.1047,-3.1283,-3.1237,-3.1281,-3.1497,-3.1688,-3.1716,-3.1694,-3.1583,-3.1698,-3.1727,-3.165,-3.2041,-3.1913,-3.1959,-3.2122,-3.2512,-3.2536,-3.2559,-3.2742,-3.2793,-3.2835,0,0,0,0,0,0,-3.1064,-3.1118,-3.123,-3.1309,-3.1357,-3.1679,-3.1488,-3.1489,-3.1571,-3.1552,-3.1646,-3.1653,-3.1639,-3.1888,-3.193,-3.2085,-3.1808,-3.2521,-3.2542,-3.2561,-3.2759,-3.2801,-3.2836,0,0,0,0,0,-3.1078,-3.1121,-3.1474,-3.1306,-3.1348,-3.1374,-3.1479,-3.1478,-3.1541,-3.1588,-3.1591,-3.1517,-3.1644,-3.1678,-3.1913,-3.2067,-3.1779,-3.1795,-3.2535,-3.2551,-3.2566,-3.278,0,0,0,0,0,0,-3.1088,-3.1123,-3.1481,-3.1494,-3.1214,-3.1356,-3.1377,-3.1469,-3.1571,-3.1577,-3.1456,-3.144,-3.1651,-3.1676,-3.1703,-3.2062,-3.1755,-3.1771,-3.1781,-3.2547,-3.256,-3.2571,0,0,0,0,0,0,-3.1099,-3.1134,-3.1488,-3.1374,-3.1372,-3.1339,-3.1358,-3.1554,-3.1574,-3.1433,-3.1423,-3.1448,-3.1612,-3.1676,-3.1696,-3.2002,-3.1737,-3.1752,-3.1763,-3.177,-3.2558,-3.2568,0,0,0,0,0,0,-3.1113,-3.1143,-3.137,-3.137,-3.1368,-3.1502,-3.1512,-3.1736,-3.1472,-3.143,-3.1448,-3.1437,-3.1614,-3.1634,-3.1692,-3.199,-3.1999,-3.1737,-3.1748,-3.1755,-3.176,0,0,0,0,0,0,0,-3.1125,-3.0931,-3.1409,-3.1366,-3.1364,-3.1605,-3.1609,-3.1612,-3.147,-3.146,-3.1451,-3.1442,-3.1649,-3.1666,-3.1683,-3.198,0,0,-3.1736,-3.1743,0,0,0,0,0,0,0,0,-3.0918,-3.0928,-3.141,-3.1412,-3.1415,-3.1606,-3.1609,-3.1611,-3.1468,-3.146,-3.1453,-3.1446,-3.1654,-3.1668,-3.1681,0,0,0,0,0,0,0,0,0,0,0,0,0,0,0,-3.141,-3.1412,0,-3.1606,-3.1609,-3.1611,-3.1467,-3.1461,-3.1454,-3.1448,-3.1658,-3.1669,-3.168,0,0,0,0,0,0,0,0,0,0,0,0,0,0,0,0,0,0,0,0,0,0,0,0,0,0,0,0,0,0,0,0,0,0,0,0,0,0,0,0,0,0,0,0,0,0,0,0,0,0,0,0,0,0,0,0,0,0,0,0,0,0,0,0,0,0,0,0,0]}],[{"header":{"parameterUnit":"kt","parameterCategory":2,"dx":1,"dy":1,"la1":30.253999710083008,"la2":30.299108505249023,"lo1":-89.0895004272461,"lo2":-89.04439544677734,"nx":28,"ny":28,"refTime":"2022-09-28T21:00:00:Z","depth":0,"parameterNumber":2,"parameterNumberName":"V-component_of_WINDS"},"data":[-12.7841,-12.8072,-12.8071,-12.8331,-12.8372,-12.8547,-12.8608,-12.8686,-12.8746,-12.895,-12.9066,-12.9083,-12.9136,-12.9269,-12.9391,-12.9394,-12.9445,-12.9529,-12.9518,-12.9149,-12.9097,-12.9048,-12.8994,-12.9541,-12.9542,-12.99,-12.9903,-12.9906,-12.7569,-12.7614,-12.7753,-12.7884,-12.8,-12.7918,-12.8013,-12.8114,-12.8272,-12.8347,-12.8462,-12.8639,-12.8777,-12.8802,-12.8932,-12.9034,-12.9,-12.907,-12.906,-12.9069,-12.8676,-12.8619,-12.9095,-12.9095,-12.9095,-12.9095,-12.9095,-12.9095,-12.7073,-12.7212,-12.7291,-12.744,-12.7505,-12.7591,-12.7721,-12.774,-12.7871,-12.8011,-12.7979,-12.8154,-12.8225,-12.8378,-12.8426,-12.856,-12.848,-12.8553,-12.8571,-12.8589,-12.8611,-12.8092,-12.8582,-12.858,-12.8579,-12.8578,-12.8577,0,-12.6708,-12.6697,-12.6829,-12.6961,-12.7069,-12.7169,-12.7259,-12.7339,-12.7307,-12.7417,-12.7573,-12.7662,-12.7834,-12.7977,-12.8097,-12.8132,-12.8051,-12.8042,-12.8092,-12.811,-12.8111,-12.8111,-12.7467,-12.8027,-12.8023,-12.8019,-12.8017,-12.8015,-12.6205,-12.6369,-12.6448,-12.6541,-12.659,-12.6741,-12.6828,-12.6788,-12.6882,-12.6984,-12.7106,-12.725,-12.7363,-12.761,-12.7623,-12.775,-12.7712,-12.7926,-12.773,-12.7741,-12.7712,-12.7702,-12.7717,-12.7964,-12.7971,-12.7976,-12.798,0,-12.5922,-12.5916,-12.6167,-12.6228,-12.6248,-12.642,-12.6469,-12.6604,-12.6606,-12.6791,-12.6831,-12.6833,-12.6985,-12.6964,-12.7131,-12.7115,-12.7388,-12.7349,-12.7364,-12.7354,-12.7542,-12.7524,-12.8161,-12.8241,-12.7675,-12.7681,-12.7685,0,-12.5489,-12.5704,-12.5682,-12.5828,-12.6064,-12.6019,-12.6253,-12.6277,-12.6339,-12.6484,-12.6392,-12.6529,-12.648,-12.6614,-12.659,-12.6809,-12.6841,-12.684,-12.6831,-12.6848,-12.6848,-12.6893,-12.6866,-12.6806,-12.6803,-12.68,-12.6798,0,-12.5044,-12.5285,-12.5523,-12.5576,-12.5661,-12.5773,-12.5812,-12.5881,-12.5966,-12.6073,-12.6126,-12.6253,-12.6322,-12.6419,-12.6387,-12.6255,-12.6656,-12.6467,-12.6655,-12.6656,-12.6743,-12.6738,-12.731,-12.6794,-12.6793,-12.6792,-12.6791,0,-12.4692,-12.4807,-12.5154,-12.5221,-12.5286,-12.5441,-12.5564,-12.5693,-12.5771,-12.5767,-12.585,-12.5784,-12.5977,-12.5791,-12.6054,-12.589,-12.5962,-12.5979,-12.5992,-12.6006,-12.5797,-12.612,-12.6669,-12.6724,-12.6021,-12.6014,-12.6008,0,-12.4184,-12.4532,-12.4496,-12.4825,-12.4982,-12.4868,-12.5039,-12.5112,-12.5122,-12.5252,-12.526,-12.5409,-12.5266,-12.5309,-12.5442,-12.5455,-12.5668,-12.5426,-12.5608,-12.5615,-12.559,-12.6095,-12.6181,-12.6552,-12.5926,-12.5935,-12.5941,0,-12.3789,-12.3894,-12.3956,-12.4014,-12.4107,-12.4237,-12.4435,-12.4574,-12.4663,-12.4756,-12.4917,-12.5126,-12.5026,-12.5099,-12.5058,-12.5198,-12.5522,-12.507,-12.5071,-12.5151,-12.5883,-12.5964,-12.6027,-12.5463,-12.5473,-12.5481,-12.5876,0,-12.3256,-12.3429,-12.3595,-12.3728,-12.3826,-12.4031,-12.4012,-12.4117,-12.4069,-12.4073,-12.431,-12.4363,-12.4502,-12.4567,-12.4521,-12.485,-12.479,-12.4681,-12.4496,-12.4829,-12.4958,-12.5011,-12.4306,-12.43,-12.4295,-12.4291,0,0,-12.2769,-12.3018,-12.2972,-12.3163,-12.3243,-12.3121,-12.3342,-12.3404,-12.3533,-12.3589,-12.3487,-12.379,-12.3837,-12.4126,-12.4228,-12.4285,-12.434,-12.4225,-12.4671,-12.4714,-12.4753,-12.4892,-12.4948,-12.4283,-12.4281,-12.428,-12.4278,0,-12.257,-12.2629,-12.285,-12.2914,-12.3007,-12.3002,-12.3055,-12.3123,-12.3136,-12.337,-12.3262,-12.3402,-12.3646,-12.3709,-12.3773,-12.4191,-12.4099,-12.4234,-12.4466,-12.4625,-12.4674,-12.4717,-12.4863,-12.4917,-12.4267,-12.4267,-12.4268,0,-12.2176,-12.223,-12.2335,-12.2514,-12.2572,-12.2737,-12.2539,-12.2722,-12.2842,-12.2694,-12.2928,-12.2954,-12.3037,-12.3314,-12.3438,-12.3347,-12.3882,-12.3709,-12.3738,-12.3751,-12.3903,-12.3962,-12.4014,-12.3325,-12.3322,-12.3319,0,0,-12.2006,-12.2168,-12.2211,-12.2469,-12.2514,-12.251,-12.2595,-12.2556,-12.2636,-12.2668,-12.27,-12.2779,-12.2919,-12.3013,-12.3143,-12.3452,-12.3463,-12.3594,-12.3639,-12.3675,-12.3707,-12.3869,-12.3928,-12.3307,-12.3307,-12.3306,0,0,-12.1924,-12.1985,-12.1924,-12.2222,-12.2304,-12.236,-12.2517,-12.2442,-12.2558,-12.2532,-12.2471,-12.2489,-12.2748,-12.2777,-12.262,-12.3076,-12.2894,-12.2931,-12.3048,-12.3103,-12.3147,-12.3133,-12.2421,0,0,0,0,0,-12.1711,-12.1977,-12.1922,-12.1969,-12.2192,-12.2392,-12.242,-12.2378,-12.225,-12.2375,-12.2389,-12.2287,-12.2679,-12.2538,-12.2584,-12.2759,-12.3152,-12.318,-12.3206,-12.3428,-12.3487,-12.3536,0,0,0,0,0,0,-12.1729,-12.1787,-12.1914,-12.1983,-12.2033,-12.2382,-12.2156,-12.2152,-12.2236,-12.2213,-12.2287,-12.2289,-12.2254,-12.2512,-12.2553,-12.2721,-12.2407,-12.3163,-12.3186,-12.3207,-12.3448,-12.3496,-12.3537,0,0,0,0,0,-12.1743,-12.179,-12.216,-12.1979,-12.2022,-12.203,-12.2145,-12.214,-12.2204,-12.2227,-12.2225,-12.2165,-12.226,-12.2292,-12.2536,-12.2704,-12.2378,-12.2393,-12.3178,-12.3197,-12.3213,-12.3472,0,0,0,0,0,0,-12.1754,-12.1785,-12.2168,-12.2179,-12.1875,-12.201,-12.203,-12.2131,-12.221,-12.2212,-12.2099,-12.2081,-12.2268,-12.2291,-12.2317,-12.27,-12.2354,-12.237,-12.238,-12.3192,-12.3207,-12.3219,0,0,0,0,0,0,-12.1759,-12.1796,-12.2174,-12.2046,-12.2042,-12.1991,-12.2009,-12.2209,-12.2213,-12.2078,-12.2065,-12.209,-12.2228,-12.2292,-12.2311,-12.2625,-12.2336,-12.2351,-12.2362,-12.2368,-12.3204,-12.3215,0,0,0,0,0,0,-12.1774,-12.1805,-12.2042,-12.204,-12.2036,-12.216,-12.2166,-12.2396,-12.2108,-12.2076,-12.208,-12.2068,-12.2232,-12.225,-12.2308,-12.2615,-12.2623,-12.2336,-12.2347,-12.2354,-12.2359,0,0,0,0,0,0,0,-12.1785,-12.1589,-12.2101,-12.2035,-12.2031,-12.2285,-12.2288,-12.2291,-12.2105,-12.2094,-12.2083,-12.2073,-12.2248,-12.2265,-12.2282,-12.2607,0,0,-12.2335,-12.2342,0,0,0,0,0,0,0,0,-12.1575,-12.1585,-12.2101,-12.2104,-12.2106,-12.2285,-12.2288,-12.229,-12.2103,-12.2094,-12.2085,-12.2077,-12.2253,-12.2266,-12.228,0,0,0,0,0,0,0,0,0,0,0,0,0,0,0,-12.2102,-12.2104,0,-12.2285,-12.2288,-12.229,-12.2102,-12.2095,-12.2087,-12.208,-12.2257,-12.2268,-12.2279,0,0,0,0,0,0,0,0,0,0,0,0,0,0,0,0,0,0,0,0,0,0,0,0,0,0,0,0,0,0,0,0,0,0,0,0,0,0,0,0,0,0,0,0,0,0,0,0,0,0,0,0,0,0,0,0,0,0,0,0,0,0,0,0,0,0,0,0,0]}]]]